Time,TemperatureF,DewpointF,PressureIn,WindDirection,WindDirectionDegrees,WindSpeedMPH,WindSpeedGustMPH,Humidity,HourlyPrecipIn,Conditions,Clouds,dailyrainin,SoftwareType,DateUTC
2013-03-26 06:40:00,32.8,24.8,29.98,West,270,0.0,3.0,72,0.00,,BKN200,0.00,VWS V14.01,2013-03-26 10:40:00,
2013-03-26 06:56:00,32.5,24.8,29.98,West,268,1.0,1.0,73,0.00,,BKN200,0.00,VWS V14.01,2013-03-26 10:56:00,
2013-03-26 07:02:00,32.4,24.7,29.99,West,270,2.0,2.0,73,0.00,,FEW048,0.00,VWS V14.01,2013-03-26 11:02:00,
2013-03-26 07:04:00,32.5,24.8,29.99,West,269,1.0,2.0,73,0.00,,FEW048,0.00,VWS V14.01,2013-03-26 11:04:00,
2013-03-26 07:10:00,32.4,24.7,29.99,West,269,0.0,2.0,73,0.00,,FEW048,0.00,VWS V14.01,2013-03-26 11:10:00,
2013-03-26 07:17:00,32.4,24.7,29.99,West,269,0.0,2.0,73,0.00,,FEW048,0.00,VWS V14.01,2013-03-26 11:17:00,
2013-03-26 07:24:00,32.5,24.8,29.99,West,269,0.0,4.0,73,0.00,,FEW048,0.00,VWS V14.01,2013-03-26 11:24:00,
2013-03-26 07:30:00,32.5,24.8,29.99,WNW,290,0.0,4.0,73,0.00,,FEW048,0.00,VWS V14.01,2013-03-26 11:30:00,
2013-03-26 07:37:00,32.4,25.0,29.99,WNW,291,1.0,2.0,74,0.00,,FEW048,0.00,VWS V14.01,2013-03-26 11:37:00,
2013-03-26 07:43:00,32.5,25.1,29.99,West,271,1.0,2.0,74,0.00,,FEW048,0.00,VWS V14.01,2013-03-26 11:43:00,
2013-03-26 07:50:00,32.5,25.1,30.00,WNW,285,2.0,3.0,74,0.00,,FEW048,0.00,VWS V14.01,2013-03-26 11:50:00,
2013-03-26 07:56:00,32.7,25.3,30.00,West,276,2.0,2.0,74,0.00,,FEW048,0.00,VWS V14.01,2013-03-26 11:56:00,
2013-03-26 08:01:00,32.9,25.2,30.00,West,276,0.0,2.0,73,0.00,,FEW048,0.00,VWS V14.01,2013-03-26 12:01:00,
2013-03-26 08:06:00,33.4,25.7,30.00,West,272,3.0,4.0,73,0.00,,SCT250,0.00,VWS V14.01,2013-03-26 12:06:00,
2013-03-26 08:12:00,33.8,25.7,30.00,WSW,251,0.0,2.0,72,0.00,,SCT250,0.00,VWS V14.01,2013-03-26 12:12:00,
2013-03-26 08:18:00,34.1,25.7,30.01,West,264,1.0,3.0,71,0.00,,SCT250,0.00,VWS V14.01,2013-03-26 12:18:00,
2013-03-26 08:24:00,34.6,25.5,30.01,NW,305,0.0,4.0,69,0.00,,SCT250,0.00,VWS V14.01,2013-03-26 12:24:00,
2013-03-26 08:31:00,34.9,25.8,30.02,NNW,330,0.0,4.0,69,0.00,,SCT250,0.00,VWS V14.01,2013-03-26 12:31:00,
2013-03-26 08:37:00,35.3,25.8,30.02,NW,314,4.0,7.0,68,0.00,,SCT250,0.00,VWS V14.01,2013-03-26 12:37:00,
2013-03-26 08:43:00,35.9,25.7,30.02,WNW,282,2.0,5.0,66,0.00,,SCT250,0.00,VWS V14.01,2013-03-26 12:43:00,
2013-03-26 08:49:00,36.3,26.0,30.02,West,271,1.0,5.0,66,0.00,,SCT250,0.00,VWS V14.01,2013-03-26 12:49:00,
2013-03-26 08:55:00,36.8,26.5,30.02,WNW,297,4.0,4.0,66,0.00,,SCT250,0.00,VWS V14.01,2013-03-26 12:55:00,
2013-03-26 09:01:00,37.2,25.8,30.02,West,268,2.0,5.0,63,0.00,,SCT250,0.00,VWS V14.01,2013-03-26 13:01:00,
2013-03-26 09:07:00,37.5,26.1,30.02,WNW,295,3.0,4.0,63,0.00,,SCT200,0.00,VWS V14.01,2013-03-26 13:07:00,
2013-03-26 09:13:00,37.9,26.5,30.02,NW,321,0.0,3.0,63,0.00,,SCT200,0.00,VWS V14.01,2013-03-26 13:13:00,
2013-03-26 09:19:00,38.2,26.0,30.03,WNW,290,2.0,3.0,61,0.00,,SCT200,0.00,VWS V14.01,2013-03-26 13:19:00,
2013-03-26 09:25:00,38.5,25.8,30.03,West,265,0.0,5.0,60,0.00,,SCT200,0.00,VWS V14.01,2013-03-26 13:25:00,
2013-03-26 09:31:00,38.8,25.7,30.03,NW,326,0.0,5.0,59,0.00,,SCT200,0.00,VWS V14.01,2013-03-26 13:31:00,
2013-03-26 09:37:00,39.2,26.1,30.03,NW,304,1.0,5.0,59,0.00,,SCT200,0.00,VWS V14.01,2013-03-26 13:37:00,
2013-03-26 09:44:00,39.6,26.1,30.03,NW,309,0.0,4.0,58,0.00,,SCT200,0.00,VWS V14.01,2013-03-26 13:44:00,
2013-03-26 09:50:00,40.1,26.1,30.03,NNW,348,0.0,4.0,57,0.00,,SCT200,0.00,VWS V14.01,2013-03-26 13:50:00,
2013-03-26 09:56:00,40.3,26.3,30.03,NW,306,2.0,3.0,57,0.00,,SCT200,0.00,VWS V14.01,2013-03-26 13:56:00,
2013-03-26 10:01:00,40.3,25.4,30.03,NW,311,3.0,10.0,55,0.00,,SCT200,0.00,VWS V14.01,2013-03-26 14:01:00,
2013-03-26 10:06:00,40.3,25.4,30.03,WNW,290,3.0,7.0,55,0.00,,SCT200,0.00,VWS V14.01,2013-03-26 14:06:00,
2013-03-26 10:12:00,40.8,25.5,30.03,NNW,348,3.0,6.0,54,0.00,,SCT200,0.00,VWS V14.01,2013-03-26 14:12:00,
2013-03-26 10:18:00,41.1,26.2,30.03,WNW,291,4.0,6.0,55,0.00,,SCT200,0.00,VWS V14.01,2013-03-26 14:18:00,
2013-03-26 10:24:00,41.2,25.8,30.03,North,0,3.0,9.0,54,0.00,,SCT200,0.00,VWS V14.01,2013-03-26 14:24:00,
2013-03-26 10:30:00,41.6,26.2,30.04,NE,37,1.0,9.0,54,0.00,,SCT200,0.00,VWS V14.01,2013-03-26 14:30:00,
2013-03-26 10:36:00,41.9,26.0,30.04,NNW,333,3.0,5.0,53,0.00,,SCT200,0.00,VWS V14.01,2013-03-26 14:36:00,
2013-03-26 10:43:00,41.9,26.0,30.04,West,276,0.0,3.0,53,0.00,,SCT200,0.00,VWS V14.01,2013-03-26 14:43:00,
2013-03-26 10:49:00,42.3,26.4,30.04,North,354,4.0,5.0,53,0.00,,SCT200,0.00,VWS V14.01,2013-03-26 14:49:00,
2013-03-26 10:55:00,42.8,25.9,30.04,North,349,1.0,6.0,51,0.00,,SCT200,0.00,VWS V14.01,2013-03-26 14:55:00,
2013-03-26 11:01:00,43.5,25.6,30.05,NNW,333,1.0,9.0,49,0.00,,SCT200,0.00,VWS V14.01,2013-03-26 15:01:00,
2013-03-26 11:07:00,43.9,25.5,30.05,West,273,0.0,6.0,48,0.00,,SCT070,0.00,VWS V14.01,2013-03-26 15:07:00,
2013-03-26 11:13:00,44.3,25.4,30.05,WNW,289,2.0,3.0,47,0.00,,SCT070,0.00,VWS V14.01,2013-03-26 15:13:00,
2013-03-26 11:19:00,44.8,25.8,30.05,North,0,2.0,9.0,47,0.00,,SCT070,0.00,VWS V14.01,2013-03-26 15:19:00,
2013-03-26 11:25:00,45.2,25.1,30.05,West,279,0.0,8.0,45,0.00,,SCT070,0.00,VWS V14.01,2013-03-26 15:25:00,
2013-03-26 11:33:00,45.8,25.1,30.04,WSW,255,1.0,8.0,44,0.00,,SCT070,0.00,VWS V14.01,2013-03-26 15:33:00,
2013-03-26 11:39:00,46.1,26.0,30.04,NNW,340,0.0,8.0,45,0.00,,SCT070,0.00,VWS V14.01,2013-03-26 15:39:00,
2013-03-26 11:45:00,46.7,25.4,30.04,West,278,2.0,5.0,43,0.00,,SCT070,0.00,VWS V14.01,2013-03-26 15:45:00,
2013-03-26 11:51:00,46.8,25.5,30.04,West,260,3.0,7.0,43,0.00,,SCT070,0.00,VWS V14.01,2013-03-26 15:51:00,
2013-03-26 11:57:00,46.7,26.0,30.04,WNW,283,3.0,4.0,44,0.00,,SCT070,0.00,VWS V14.01,2013-03-26 15:57:00,
2013-03-26 12:03:00,46.7,24.3,30.04,NNW,328,4.0,4.0,41,0.00,,BKN075,0.00,VWS V14.01,2013-03-26 16:03:00,
2013-03-26 12:09:00,46.4,25.1,30.04,NW,309,3.0,6.0,43,0.00,,BKN075,0.00,VWS V14.01,2013-03-26 16:09:00,
2013-03-26 12:15:00,46.7,25.4,30.04,WSW,250,4.0,9.0,43,0.00,,BKN075,0.00,VWS V14.01,2013-03-26 16:15:00,
2013-03-26 12:21:00,47.4,24.9,30.04,NNW,347,4.0,9.0,41,0.00,,BKN075,0.00,VWS V14.01,2013-03-26 16:21:00,
2013-03-26 12:27:00,47.7,25.2,30.04,West,263,7.0,7.0,41,0.00,,BKN075,0.00,VWS V14.01,2013-03-26 16:27:00,
2013-03-26 12:33:00,48.0,25.4,30.04,NE,56,1.0,3.0,41,0.00,,BKN075,0.00,VWS V14.01,2013-03-26 16:33:00,
2013-03-26 12:39:00,47.7,25.8,30.04,NNE,23,0.0,4.0,42,0.00,,BKN075,0.00,VWS V14.01,2013-03-26 16:39:00,
2013-03-26 12:46:00,47.6,25.1,30.04,NE,37,1.0,6.0,41,0.00,,BKN075,0.00,VWS V14.01,2013-03-26 16:46:00,
2013-03-26 12:51:00,47.1,24.6,30.04,WNW,286,2.0,6.0,41,0.00,,BKN075,0.00,VWS V14.01,2013-03-26 16:51:00,
2013-03-26 12:56:00,46.7,24.8,30.04,North,358,0.0,4.0,42,0.00,,BKN075,0.00,VWS V14.01,2013-03-26 16:56:00,
2013-03-26 13:02:00,46.5,25.2,30.04,NNW,329,0.0,4.0,43,0.00,,BKN075,0.00,VWS V14.01,2013-03-26 17:02:00,
2013-03-26 13:09:00,46.8,25.5,30.04,North,1,0.0,6.0,43,0.00,,BKN075,0.00,VWS V14.01,2013-03-26 17:09:00,
2013-03-26 13:15:00,47.1,25.2,30.04,WNW,299,3.0,6.0,42,0.00,,BKN075,0.00,VWS V14.01,2013-03-26 17:15:00,
2013-03-26 13:21:00,46.5,25.2,30.04,NW,309,0.0,6.0,43,0.00,,BKN075,0.00,VWS V14.01,2013-03-26 17:21:00,
2013-03-26 13:27:00,46.5,25.2,30.04,West,278,3.0,6.0,43,0.00,,BKN075,0.00,VWS V14.01,2013-03-26 17:27:00,
2013-03-26 13:33:00,46.5,25.2,30.04,North,2,0.0,1.0,43,0.00,,BKN075,0.00,VWS V14.01,2013-03-26 17:33:00,
2013-03-26 13:39:00,46.8,26.0,30.04,North,354,3.0,3.0,44,0.00,,BKN075,0.00,VWS V14.01,2013-03-26 17:39:00,
2013-03-26 13:45:00,46.7,26.0,30.04,West,275,1.0,2.0,44,0.00,,BKN075,0.00,VWS V14.01,2013-03-26 17:45:00,
2013-03-26 13:51:00,46.7,26.0,30.04,NW,310,1.0,1.0,44,0.00,,BKN075,0.00,VWS V14.01,2013-03-26 17:51:00,
2013-03-26 13:57:00,46.7,26.0,30.04,WNW,283,0.0,2.0,44,0.00,,BKN075,0.00,VWS V14.01,2013-03-26 17:57:00,
2013-03-26 14:03:00,46.5,25.8,30.04,NW,318,0.0,3.0,44,0.00,,OVC070,0.00,VWS V14.01,2013-03-26 18:03:00,
2013-03-26 14:09:00,46.2,25.5,30.04,WNW,290,4.0,7.0,44,0.00,,OVC070,0.00,VWS V14.01,2013-03-26 18:09:00,
2013-03-26 14:15:00,45.8,25.1,30.05,WNW,302,1.0,4.0,44,0.00,,OVC070,0.00,VWS V14.01,2013-03-26 18:15:00,
2013-03-26 14:21:00,45.7,26.1,30.05,WNW,303,0.0,4.0,46,0.00,,OVC070,0.00,VWS V14.01,2013-03-26 18:21:00,
2013-03-26 14:27:00,46.0,25.9,30.05,West,271,2.0,4.0,45,0.00,,OVC070,0.00,VWS V14.01,2013-03-26 18:27:00,
2013-03-26 14:33:00,46.4,26.8,30.05,SSW,212,0.0,2.0,46,0.00,,OVC070,0.00,VWS V14.01,2013-03-26 18:33:00,
2013-03-26 14:39:00,47.0,26.2,30.05,WNW,295,4.0,9.0,44,0.00,,OVC070,0.00,VWS V14.01,2013-03-26 18:39:00,
2013-03-26 14:45:00,46.8,26.0,30.05,West,281,2.0,11.0,44,0.00,,OVC070,0.00,VWS V14.01,2013-03-26 18:45:00,
2013-03-26 14:51:00,46.8,26.6,30.05,NW,315,2.0,3.0,45,0.00,,OVC070,0.00,VWS V14.01,2013-03-26 18:51:00,
2013-03-26 14:58:00,46.7,27.0,30.05,NW,313,0.0,7.0,46,0.00,,OVC070,0.00,VWS V14.01,2013-03-26 18:58:00,
2013-03-26 15:04:00,46.4,26.2,30.05,SW,221,4.0,6.0,45,0.00,,OVC070,0.00,VWS V14.01,2013-03-26 19:04:00,
2013-03-26 15:10:00,46.4,26.2,30.05,WNW,282,3.0,7.0,45,0.00,,OVC070,0.00,VWS V14.01,2013-03-26 19:10:00,
2013-03-26 15:16:00,46.5,25.8,30.05,West,281,2.0,4.0,44,0.00,,OVC070,0.00,VWS V14.01,2013-03-26 19:16:00,
2013-03-26 15:21:00,46.7,26.5,30.05,West,270,1.0,5.0,45,0.00,,OVC070,0.00,VWS V14.01,2013-03-26 19:21:00,
2013-03-26 15:26:00,46.8,26.0,30.05,NW,305,3.0,8.0,44,0.00,,OVC070,0.00,VWS V14.01,2013-03-26 19:26:00,
2013-03-26 15:33:00,47.0,26.8,30.05,North,358,11.0,11.0,45,0.00,,OVC070,0.00,VWS V14.01,2013-03-26 19:33:00,
2013-03-26 15:39:00,46.7,26.5,30.05,WNW,282,2.0,11.0,45,0.00,,OVC070,0.00,VWS V14.01,2013-03-26 19:39:00,
2013-03-26 15:45:00,46.7,26.5,30.05,NW,325,2.0,8.0,45,0.00,,OVC070,0.00,VWS V14.01,2013-03-26 19:45:00,
2013-03-26 15:51:00,47.0,26.8,30.05,WNW,288,6.0,10.0,45,0.00,,OVC070,0.00,VWS V14.01,2013-03-26 19:51:00,
2013-03-26 15:57:00,46.7,24.8,30.05,NW,307,2.0,9.0,42,0.00,,OVC070,0.00,VWS V14.01,2013-03-26 19:57:00,
2013-03-26 16:03:00,47.1,26.9,30.05,NNW,333,4.0,4.0,45,0.00,,OVC080,0.00,VWS V14.01,2013-03-26 20:03:00,
2013-03-26 16:09:00,47.4,25.5,30.05,NW,306,2.0,7.0,42,0.00,,OVC080,0.00,VWS V14.01,2013-03-26 20:09:00,
2013-03-26 16:15:00,47.9,25.9,30.05,West,280,2.0,5.0,42,0.00,,OVC080,0.00,VWS V14.01,2013-03-26 20:15:00,
2013-03-26 16:21:00,47.6,25.7,30.05,West,263,0.0,6.0,42,0.00,,OVC080,0.00,VWS V14.01,2013-03-26 20:21:00,
2013-03-26 16:26:00,47.4,26.0,30.05,NW,314,3.0,3.0,43,0.00,,OVC080,0.00,VWS V14.01,2013-03-26 20:26:00,
2013-03-26 16:32:00,46.8,26.0,30.06,WNW,283,3.0,4.0,44,0.00,,OVC080,0.00,VWS V14.01,2013-03-26 20:32:00,
2013-03-26 16:38:00,46.7,26.0,30.06,NNW,335,3.0,7.0,44,0.00,,OVC080,0.00,VWS V14.01,2013-03-26 20:38:00,
2013-03-26 16:44:00,46.8,25.5,30.06,NW,305,2.0,4.0,43,0.00,,OVC080,0.00,VWS V14.01,2013-03-26 20:44:00,
2013-03-26 16:50:00,47.0,25.7,30.06,North,0,0.0,9.0,43,0.00,,OVC080,0.00,VWS V14.01,2013-03-26 20:50:00,
2013-03-26 16:56:00,47.3,25.4,30.06,WNW,283,1.0,4.0,42,0.00,,OVC080,0.00,VWS V14.01,2013-03-26 20:56:00,
2013-03-26 17:03:00,47.4,26.0,30.06,NNE,14,0.0,3.0,43,0.00,,BKN080,0.00,VWS V14.01,2013-03-26 21:03:00,
2013-03-26 17:09:00,47.1,25.8,30.06,WNW,287,3.0,9.0,43,0.00,,BKN080,0.00,VWS V14.01,2013-03-26 21:09:00,
2013-03-26 17:15:00,47.0,25.1,30.06,NNW,328,1.0,4.0,42,0.00,,BKN080,0.00,VWS V14.01,2013-03-26 21:15:00,
2013-03-26 17:21:00,47.0,26.2,30.08,WNW,289,0.0,7.0,44,0.00,,BKN080,0.00,VWS V14.01,2013-03-26 21:21:00,
2013-03-26 17:27:00,46.8,25.5,30.08,WSW,257,2.0,7.0,43,0.00,,BKN080,0.00,VWS V14.01,2013-03-26 21:27:00,
2013-03-26 17:33:00,46.7,25.4,30.08,WNW,289,0.0,3.0,43,0.00,,BKN080,0.00,VWS V14.01,2013-03-26 21:33:00,
2013-03-26 17:39:00,46.4,25.7,30.08,WNW,301,3.0,10.0,44,0.00,,BKN080,0.00,VWS V14.01,2013-03-26 21:39:00,
2013-03-26 17:45:00,46.1,24.9,30.08,West,269,3.0,5.0,43,0.00,,BKN080,0.00,VWS V14.01,2013-03-26 21:45:00,
2013-03-26 17:51:00,46.0,25.9,30.08,WNW,290,4.0,10.0,45,0.00,,BKN080,0.00,VWS V14.01,2013-03-26 21:51:00,
2013-03-26 17:57:00,45.8,25.7,30.08,WNW,295,2.0,4.0,45,0.00,,BKN080,0.00,VWS V14.01,2013-03-26 21:57:00,
2013-03-26 18:03:00,45.8,26.2,30.09,NW,308,0.0,2.0,46,0.00,,BKN080,0.00,VWS V14.01,2013-03-26 22:03:00,
2013-03-26 18:09:00,45.7,26.6,30.09,West,274,0.0,3.0,47,0.00,,BKN080,0.00,VWS V14.01,2013-03-26 22:09:00,
2013-03-26 18:15:00,45.7,26.1,30.09,NW,316,2.0,5.0,46,0.00,,BKN080,0.00,VWS V14.01,2013-03-26 22:15:00,
2013-03-26 18:21:00,45.7,26.6,30.09,NW,315,0.0,6.0,47,0.00,,BKN080,0.00,VWS V14.01,2013-03-26 22:21:00,
2013-03-26 18:26:00,45.7,26.6,30.09,WNW,294,0.0,3.0,47,0.00,,BKN080,0.00,VWS V14.01,2013-03-26 22:26:00,
2013-03-26 18:32:00,45.5,26.5,30.10,West,281,3.0,3.0,47,0.00,,BKN080,0.00,VWS V14.01,2013-03-26 22:32:00,
2013-03-26 18:38:00,45.5,27.0,30.10,NW,304,0.0,3.0,48,0.00,,BKN080,0.00,VWS V14.01,2013-03-26 22:38:00,
2013-03-26 18:44:00,45.4,26.9,30.10,WSW,256,0.0,2.0,48,0.00,,BKN080,0.00,VWS V14.01,2013-03-26 22:44:00,
2013-03-26 18:50:00,45.4,27.4,30.11,NW,311,2.0,4.0,49,0.00,,BKN080,0.00,VWS V14.01,2013-03-26 22:50:00,
2013-03-26 18:57:00,45.2,27.2,30.11,WNW,298,2.0,4.0,49,0.00,,BKN080,0.00,VWS V14.01,2013-03-26 22:57:00,
2013-03-26 19:03:00,45.1,27.1,30.11,WNW,288,0.0,2.0,49,0.00,,BKN150,0.00,VWS V14.01,2013-03-26 23:03:00,
2013-03-26 19:09:00,44.9,27.9,30.11,SW,219,0.0,2.0,51,0.00,,BKN150,0.00,VWS V14.01,2013-03-26 23:09:00,
2013-03-26 19:15:00,44.8,27.3,30.11,WNW,287,1.0,1.0,50,0.00,,BKN150,0.00,VWS V14.01,2013-03-26 23:15:00,
2013-03-26 19:21:00,44.6,27.1,30.12,West,276,1.0,3.0,50,0.00,,BKN150,0.00,VWS V14.01,2013-03-26 23:21:00,
2013-03-26 19:27:00,44.6,26.6,30.12,NNW,336,1.0,4.0,49,0.00,,BKN150,0.00,VWS V14.01,2013-03-26 23:27:00,
2013-03-26 19:33:00,44.6,27.1,30.12,WNW,290,0.0,2.0,50,0.00,,BKN150,0.00,VWS V14.01,2013-03-26 23:33:00,
2013-03-26 19:39:00,44.5,27.5,30.12,WNW,290,0.0,2.0,51,0.00,,BKN150,0.00,VWS V14.01,2013-03-26 23:39:00,
2013-03-26 19:45:00,44.2,27.2,30.13,WNW,297,0.0,3.0,51,0.00,,BKN150,0.00,VWS V14.01,2013-03-26 23:45:00,
2013-03-26 19:51:00,44.1,27.6,30.13,WNW,297,0.0,3.0,52,0.00,,BKN150,0.00,VWS V14.01,2013-03-26 23:51:00,
2013-03-26 19:56:00,43.9,27.9,30.13,WSW,250,0.0,2.0,53,0.00,,BKN150,0.00,VWS V14.01,2013-03-26 23:56:00,
2013-03-26 20:02:00,43.6,27.6,30.14,WSW,250,0.0,0.0,53,0.00,,BKN150,0.00,VWS V14.01,2013-03-27 00:02:00,
2013-03-26 20:08:00,43.3,27.8,30.14,WSW,250,0.0,1.0,54,0.00,,BKN150,0.00,VWS V14.01,2013-03-27 00:08:00,
2013-03-26 20:15:00,43.2,28.1,30.14,WSW,250,0.0,1.0,55,0.00,,BKN150,0.00,VWS V14.01,2013-03-27 00:15:00,
2013-03-26 20:21:00,43.2,28.1,30.14,West,281,0.0,5.0,55,0.00,,BKN150,0.00,VWS V14.01,2013-03-27 00:21:00,
2013-03-26 20:27:00,43.1,27.6,30.14,West,281,0.0,2.0,54,0.00,,BKN150,0.00,VWS V14.01,2013-03-27 00:27:00,
2013-03-26 20:33:00,43.1,27.1,30.15,West,281,0.0,1.0,53,0.00,,BKN150,0.00,VWS V14.01,2013-03-27 00:33:00,
2013-03-26 20:39:00,43.1,26.2,30.15,WNW,290,1.0,3.0,51,0.00,,BKN150,0.00,VWS V14.01,2013-03-27 00:39:00,
2013-03-26 20:45:00,43.1,26.2,30.15,NW,307,5.0,5.0,51,0.00,,BKN150,0.00,VWS V14.01,2013-03-27 00:45:00,
2013-03-26 20:51:00,43.2,25.4,30.16,NW,304,1.0,6.0,49,0.00,,BKN150,0.00,VWS V14.01,2013-03-27 00:51:00,
2013-03-26 20:57:00,43.1,25.7,30.16,WNW,290,0.0,3.0,50,0.00,,BKN150,0.00,VWS V14.01,2013-03-27 00:57:00,
2013-03-26 21:03:00,42.9,25.1,30.17,WNW,300,0.0,3.0,49,0.00,,BKN150,0.00,VWS V14.01,2013-03-27 01:03:00,
2013-03-26 21:09:00,42.8,25.0,30.17,WNW,301,0.0,3.0,49,0.00,,BKN150,0.00,VWS V14.01,2013-03-27 01:09:00,
2013-03-26 21:15:00,42.3,25.0,30.17,WNW,301,0.0,1.0,50,0.00,,BKN150,0.00,VWS V14.01,2013-03-27 01:15:00,
2013-03-26 21:21:00,42.1,24.3,30.17,WNW,300,0.0,3.0,49,0.00,,BKN150,0.00,VWS V14.01,2013-03-27 01:21:00,
2013-03-26 21:26:00,41.8,24.5,30.17,WNW,300,0.0,2.0,50,0.00,,BKN150,0.00,VWS V14.01,2013-03-27 01:26:00,
2013-03-26 21:32:00,41.5,24.7,30.17,NW,307,0.0,0.0,51,0.00,,BKN150,0.00,VWS V14.01,2013-03-27 01:32:00,
2013-03-26 21:38:00,41.2,24.5,30.17,NW,306,3.0,4.0,51,0.00,,BKN150,0.00,VWS V14.01,2013-03-27 01:38:00,
2013-03-26 21:44:00,41.3,24.1,30.17,NW,314,1.0,3.0,50,0.00,,BKN150,0.00,VWS V14.01,2013-03-27 01:44:00,
2013-03-26 21:51:00,41.2,24.0,30.19,WNW,301,1.0,3.0,50,0.00,,BKN150,0.00,VWS V14.01,2013-03-27 01:51:00,
2013-03-26 21:57:00,41.2,24.5,30.19,WNW,299,1.0,7.0,51,0.00,,BKN150,0.00,VWS V14.01,2013-03-27 01:57:00,
2013-03-26 22:03:00,40.9,24.6,30.19,NW,308,1.0,2.0,52,0.00,,FEW075,0.00,VWS V14.01,2013-03-27 02:03:00,
2013-03-26 22:09:00,40.8,24.5,30.19,NW,307,1.0,5.0,52,0.00,,FEW075,0.00,VWS V14.01,2013-03-27 02:09:00,
2013-03-26 22:15:00,40.6,24.8,30.19,West,268,2.0,3.0,53,0.00,,FEW075,0.00,VWS V14.01,2013-03-27 02:15:00,
2013-03-26 22:21:00,40.3,25.0,30.20,WNW,295,2.0,5.0,54,0.00,,FEW075,0.00,VWS V14.01,2013-03-27 02:21:00,
2013-03-26 22:27:00,40.2,24.9,30.20,NW,325,0.0,4.0,54,0.00,,FEW075,0.00,VWS V14.01,2013-03-27 02:27:00,
2013-03-26 22:33:00,40.1,25.2,30.20,NW,313,3.0,4.0,55,0.00,,FEW075,0.00,VWS V14.01,2013-03-27 02:33:00,
2013-03-26 22:39:00,40.1,25.2,30.20,NW,319,2.0,4.0,55,0.00,,FEW075,0.00,VWS V14.01,2013-03-27 02:39:00,
2013-03-26 22:45:00,39.9,25.5,30.20,WNW,285,2.0,4.0,56,0.00,,FEW075,0.00,VWS V14.01,2013-03-27 02:45:00,
2013-03-26 22:51:00,39.6,25.2,30.20,NW,304,4.0,4.0,56,0.00,,FEW075,0.00,VWS V14.01,2013-03-27 02:51:00,
2013-03-26 22:58:00,39.5,25.5,30.20,NNW,330,2.0,4.0,57,0.00,,FEW075,0.00,VWS V14.01,2013-03-27 02:58:00,
2013-03-26 23:04:00,39.5,25.5,30.20,NW,309,1.0,2.0,57,0.00,,CLR,0.00,VWS V14.01,2013-03-27 03:04:00,
2013-03-26 23:10:00,39.2,25.3,30.20,West,261,0.0,5.0,57,0.00,,CLR,0.00,VWS V14.01,2013-03-27 03:10:00,
2013-03-26 23:16:00,39.1,25.6,30.20,NW,314,1.0,3.0,58,0.00,,CLR,0.00,VWS V14.01,2013-03-27 03:16:00,
2013-03-26 23:22:00,38.8,25.7,30.20,WNW,289,0.0,1.0,59,0.00,,CLR,0.00,VWS V14.01,2013-03-27 03:22:00,
2013-03-26 23:28:00,38.6,25.5,30.20,NW,320,2.0,3.0,59,0.00,,CLR,0.00,VWS V14.01,2013-03-27 03:28:00,
2013-03-26 23:34:00,38.5,25.8,30.20,West,276,0.0,1.0,60,0.00,,CLR,0.00,VWS V14.01,2013-03-27 03:34:00,
2013-03-26 23:40:00,38.5,25.4,30.20,NW,313,0.0,4.0,59,0.00,,CLR,0.00,VWS V14.01,2013-03-27 03:40:00,
2013-03-26 23:46:00,38.3,25.6,30.21,NW,306,0.0,3.0,60,0.00,,CLR,0.00,VWS V14.01,2013-03-27 03:46:00,
2013-03-26 23:52:00,38.3,25.6,30.21,West,272,0.0,3.0,60,0.00,,CLR,0.00,VWS V14.01,2013-03-27 03:52:00,
2013-03-26 23:58:00,38.2,26.0,30.21,West,278,0.0,3.0,61,0.00,,CLR,0.00,VWS V14.01,2013-03-27 03:58:00,